COSMOS 1844

Last updated on Thu Nov 21 2024 00:02:12 GMT+0000 (Coordinated Universal Time)

1 17973U 87041A 24325.44809822 .00000473 00000+0 27126-3 0 9994 2 17973 70.8978 314.3637 0030363 10.4327 349.7418 14.14402438936529
UTC large
Height (km)
Speed (km/s)
/
Latitude / Longitude
Inclination (degrees)
Orbital Period (minutes)
Azimuth
Elevation
Range (km)
Doppler Factor

Next 0 passes for location: London (51.5072 / 0.1276)

Sorry there are no passes over London.